[[{"header":{"parameterUnit":"m.s-1","parameterCategory":1,"la1":30.2991,"la2":30.254,"lo1":-89.0895,"lo2":-89.0444,"dy":0.0017,"dx":0.0017,"nx":28,"ny":28,"refTime":"2024-08-21T21:00:00:Z","depth":0,"parameterNumber":2,"parameterNumberName":"U-component_of_WINDS"},"data":[0,0,0,0,0,0,0,0,0,0,0,0,0,0,0,0,0,0,0,0,0,0,0,0,0,0,0,0,0,0,0,0,0,0,0,0,0,0,0,0,0,0,0,0,0,0,0,0,0,0,0,0,0,0,0,0,0,0,-1.6448,-1.6446,0,-1.6225,-1.6223,-1.622,-1.608,-1.6079,-1.6078,-1.6077,-1.5835,-1.583,-1.5824,0,0,0,0,0,0,0,0,0,0,0,0,0,-1.6744,-1.6739,-1.6449,-1.6446,-1.6443,-1.6226,-1.6223,-1.622,-1.608,-1.6079,-1.6078,-1.6077,-1.5837,-1.5831,-1.5824,0,0,0,0,0,0,0,0,0,0,0,0,0,-1.6578,-1.6738,-1.6449,-1.6347,-1.6336,-1.6226,-1.6223,-1.6219,-1.608,-1.6079,-1.6078,-1.6077,-1.584,-1.5831,-1.5823,-1.5793,0,0,-1.5797,-1.5793,0,0,0,0,0,0,0,0,-1.6587,-1.6567,-1.6365,-1.6354,-1.6341,-1.6179,-1.6238,-1.6075,-1.608,-1.6177,-1.6077,-1.6076,-1.595,-1.5932,-1.5892,-1.5781,-1.5771,-1.5796,-1.5791,-1.5787,-1.5784,0,0,0,0,0,0,0,-1.6599,-1.6576,-1.636,-1.6362,-1.6348,-1.631,-1.6285,-1.6207,-1.6072,-1.6168,-1.6158,-1.6134,-1.5943,-1.5901,-1.5886,-1.5767,-1.5796,-1.5788,-1.5783,-1.578,-1.5623,-1.5624,0,0,0,0,0,0,-1.6628,-1.6586,-1.6367,-1.6353,-1.6464,-1.6306,-1.6278,-1.6232,-1.6073,-1.6047,-1.6135,-1.6128,-1.5916,-1.5896,-1.5877,-1.5832,-1.5787,-1.5779,-1.5774,-1.5622,-1.5623,-1.5625,0,0,0,0,0,0,-1.6635,-1.661,-1.6376,-1.6467,-1.6434,-1.6302,-1.6252,-1.6228,-1.6186,-1.6048,-1.6022,-1.6118,-1.5915,-1.5889,-1.5816,-1.5822,-1.5775,-1.5767,-1.5621,-1.5623,-1.5624,-1.5743,0,0,0,0,0,0,-1.6644,-1.6613,-1.6602,-1.6468,-1.643,-1.6322,-1.6252,-1.6225,-1.6174,-1.6162,-1.6024,-1.6,-1.5912,-1.583,-1.5808,-1.5809,-1.576,-1.562,-1.5622,-1.5624,-1.5738,-1.5749,-1.5758,0,0,0,0,0,-1.6655,-1.6641,-1.6602,-1.6577,-1.6414,-1.6323,-1.6301,-1.6203,-1.6175,-1.6161,-1.6073,-1.6004,-1.5826,-1.5824,-1.5797,-1.5797,-1.5619,-1.5621,-1.5623,-1.5734,-1.5747,-1.5758,0,0,0,0,0,0,-1.6773,-1.6621,-1.6577,-1.6519,-1.6436,-1.6299,-1.6279,-1.6219,-1.6138,-1.6131,-1.6009,-1.5979,-1.5919,-1.585,-1.585,-1.5761,-1.5714,-1.5712,-1.5807,-1.5818,-1.5828,-1.5845,-1.5753,0,0,0,0,0,-1.6794,-1.6736,-1.6605,-1.6567,-1.6528,-1.6412,-1.6368,-1.6301,-1.6208,-1.617,-1.6076,-1.5985,-1.5908,-1.586,-1.5781,-1.5729,-1.5696,-1.5715,-1.5725,-1.5734,-1.5732,-1.5701,-1.5708,-1.5632,-1.5632,-1.5632,0,0,-1.6833,-1.6743,-1.6713,-1.6589,-1.6516,-1.6456,-1.6382,-1.6321,-1.6275,-1.6159,-1.6086,-1.6015,-1.5905,-1.5844,-1.5812,-1.5784,-1.5747,-1.5737,-1.5745,-1.5738,-1.5704,-1.5712,-1.5718,-1.5633,-1.5633,-1.5633,0,0,-1.6875,-1.6802,-1.6763,-1.6694,-1.6587,-1.6511,-1.6503,-1.6376,-1.6326,-1.6253,-1.6166,-1.6108,-1.5978,-1.5904,-1.585,-1.5871,-1.5805,-1.5849,-1.5898,-1.587,-1.5876,-1.5881,-1.5888,-1.5893,-1.5848,-1.5848,-1.5848,0,-1.6935,-1.6846,-1.6749,-1.6696,-1.6644,-1.6543,-1.6502,-1.6438,-1.631,-1.6275,-1.6248,-1.6087,-1.6005,-1.5926,-1.5933,-1.5892,-1.5877,-1.5862,-1.5884,-1.5887,-1.589,-1.5896,-1.5899,-1.5854,-1.5854,-1.5853,-1.5852,0,-1.6927,-1.6866,-1.6848,-1.6733,-1.6679,-1.6632,-1.6526,-1.6483,-1.6422,-1.6349,-1.6276,-1.6176,-1.6078,-1.6054,-1.5991,-1.5967,-1.5954,-1.5908,-1.5858,-1.5905,-1.5909,-1.591,-1.5863,-1.5861,-1.5859,-1.5857,0,0,-1.7031,-1.6869,-1.6864,-1.6812,-1.669,-1.664,-1.6589,-1.6498,-1.6463,-1.6379,-1.6332,-1.6229,-1.6187,-1.6125,-1.6054,-1.6029,-1.6054,-1.5985,-1.598,-1.6001,-1.6022,-1.6057,-1.6061,-1.6012,-1.6011,-1.6011,-1.6031,0,-1.7054,-1.6961,-1.6876,-1.6812,-1.6756,-1.6662,-1.6618,-1.6537,-1.6468,-1.6408,-1.6329,-1.6259,-1.6208,-1.6171,-1.6143,-1.6057,-1.6056,-1.6055,-1.5964,-1.5962,-1.5993,-1.6063,-1.6098,-1.6121,-1.6032,-1.6032,-1.6032,0,-1.7066,-1.6994,-1.6927,-1.6815,-1.6788,-1.675,-1.6662,-1.6606,-1.6513,-1.6465,-1.6401,-1.6328,-1.6268,-1.6229,-1.6144,-1.6145,-1.6103,-1.6056,-1.6055,-1.604,-1.5998,-1.6049,-1.6126,-1.613,-1.6033,-1.6033,-1.6033,0,-1.715,-1.7034,-1.6981,-1.6939,-1.6807,-1.6783,-1.6726,-1.6632,-1.6585,-1.6506,-1.6474,-1.6389,-1.6341,-1.6276,-1.6182,-1.6162,-1.6107,-1.6059,-1.6063,-1.6066,-1.6053,-1.6055,-1.6124,-1.603,-1.603,-1.603,-1.603,0,-1.7183,-1.7146,-1.7017,-1.6983,-1.6939,-1.6841,-1.6799,-1.6733,-1.6653,-1.6603,-1.6516,-1.6471,-1.635,-1.629,-1.6216,-1.6158,-1.6136,-1.6094,-1.6074,-1.6101,-1.6107,-1.607,-1.6065,-1.603,-1.603,-1.603,-1.603,0,-1.7267,-1.7179,-1.7114,-1.6998,-1.6967,-1.694,-1.6838,-1.6801,-1.6731,-1.667,-1.6649,-1.6536,-1.6462,-1.6363,-1.6255,-1.6206,-1.6157,-1.6126,-1.619,-1.6178,-1.6187,-1.6188,-1.6233,-1.6234,-1.6143,-1.6144,-1.6144,0,-1.7293,-1.7263,-1.7145,-1.7109,-1.7057,-1.6998,-1.6951,-1.6854,-1.6808,-1.6704,-1.6679,-1.66,-1.653,-1.6416,-1.6322,-1.624,-1.6206,-1.6229,-1.6193,-1.6222,-1.6206,-1.6209,-1.6205,-1.6236,-1.6238,-1.6239,-1.624,0,-1.7349,-1.7309,-1.7246,-1.7171,-1.7119,-1.7053,-1.6982,-1.6956,-1.6844,-1.6797,-1.6723,-1.667,-1.6565,-1.6486,-1.6394,-1.6331,-1.6267,-1.6253,-1.6249,-1.6275,-1.6313,-1.6293,-1.6212,-1.6251,-1.625,-1.6249,-1.6248,-1.6248,-1.7403,-1.7374,-1.7288,-1.7223,-1.7162,-1.7099,-1.7061,-1.6988,-1.6926,-1.6836,-1.6782,-1.6711,-1.6621,-1.6491,-1.6433,-1.6374,-1.6348,-1.6343,-1.6341,-1.6341,-1.635,-1.6326,-1.6356,-1.6356,-1.6355,-1.6355,-1.6355,0,-1.7454,-1.7397,-1.7338,-1.7246,-1.7195,-1.7145,-1.7066,-1.7025,-1.6966,-1.689,-1.6826,-1.6742,-1.6667,-1.6571,-1.6489,-1.646,-1.6429,-1.6442,-1.6442,-1.6429,-1.6377,-1.6389,-1.6469,-1.6469,-1.6469,-1.6469,-1.6469,-1.6469,-1.7475,-1.7423,-1.7374,-1.7292,-1.7232,-1.7166,-1.7125,-1.7067,-1.7007,-1.692,-1.6859,-1.6799,-1.6715,-1.6627,-1.6556,-1.6529,-1.6502,-1.6525,-1.6489,-1.6442,-1.6432,-1.6422,-1.6432,-1.652,-1.652,-1.6544,-1.6545,-1.6545]},{"header":{"parameterUnit":"m.s-1","parameterCategory":1,"la1":30.2991,"la2":30.254,"lo1":-89.0895,"lo2":-89.0444,"dy":0.0017,"dx":0.0017,"nx":28,"ny":28,"refTime":"2024-08-21T21:00:00:Z","depth":0,"parameterNumber":3,"parameterNumberName":"V-component_of_WINDS"},"data":[0,0,0,0,0,0,0,0,0,0,0,0,0,0,0,0,0,0,0,0,0,0,0,0,0,0,0,0,0,0,0,0,0,0,0,0,0,0,0,0,0,0,0,0,0,0,0,0,0,0,0,0,0,0,0,0,0,0,0.982,0.9819,0,0.9724,0.9723,0.9722,0.9666,0.9666,0.9666,0.9665,0.9569,0.9567,0.9564,0,0,0,0,0,0,0,0,0,0,0,0,0,0.9958,0.9955,0.982,0.9819,0.9817,0.9724,0.9723,0.9721,0.9666,0.9666,0.9666,0.9665,0.957,0.9567,0.9564,0,0,0,0,0,0,0,0,0,0,0,0,0,0.9884,0.9955,0.982,0.9779,0.9774,0.9724,0.9723,0.9721,0.9666,0.9666,0.9666,0.9665,0.9571,0.9567,0.9564,0.9548,0,0,0.9553,0.9551,0,0,0,0,0,0,0,0,0.9888,0.9879,0.9786,0.9781,0.9776,0.9707,0.9736,0.9663,0.9666,0.9707,0.9665,0.9665,0.9615,0.9608,0.9591,0.9544,0.954,0.9552,0.955,0.9549,0.9548,0,0,0,0,0,0,0,0.9893,0.9882,0.9782,0.9785,0.9779,0.9766,0.9755,0.9722,0.9664,0.9704,0.9699,0.9689,0.9612,0.9594,0.9588,0.9538,0.9553,0.9549,0.9547,0.9546,0.9476,0.9476,0,0,0,0,0,0,0.9905,0.9887,0.9785,0.9779,0.9832,0.9763,0.9751,0.9729,0.9664,0.9654,0.9689,0.9686,0.96,0.9592,0.9584,0.9563,0.9549,0.9546,0.9543,0.9476,0.9476,0.9477,0,0,0,0,0,0,0.9908,0.9896,0.9789,0.9832,0.9817,0.9761,0.9737,0.9728,0.9709,0.9653,0.9643,0.9681,0.96,0.9589,0.9558,0.9559,0.9544,0.9541,0.9476,0.9476,0.9476,0.952,0,0,0,0,0,0,0.9912,0.9897,0.989,0.9832,0.9815,0.9763,0.9737,0.9726,0.9703,0.9699,0.9643,0.9633,0.9599,0.9564,0.9555,0.9554,0.9538,0.9475,0.9476,0.9476,0.9518,0.9521,0.9525,0,0,0,0,0,0.9917,0.9906,0.989,0.9878,0.9805,0.9763,0.9754,0.9714,0.9703,0.9696,0.9661,0.9635,0.9561,0.9561,0.955,0.9548,0.9475,0.9476,0.9476,0.9516,0.9521,0.9524,0,0,0,0,0,0,0.9966,0.9898,0.9879,0.9849,0.9812,0.9754,0.9743,0.9719,0.9685,0.9683,0.9635,0.9623,0.9596,0.9569,0.9571,0.9531,0.9515,0.9514,0.9549,0.9553,0.9556,0.9563,0.9535,0,0,0,0,0,0.9973,0.9944,0.9887,0.9866,0.9849,0.98,0.978,0.9752,0.9713,0.9697,0.9659,0.9622,0.959,0.957,0.9538,0.9514,0.9502,0.9508,0.9511,0.9514,0.9513,0.95,0.9502,0.9479,0.9479,0.9479,0,0,0.9988,0.9947,0.9932,0.9875,0.9843,0.9815,0.9787,0.9758,0.9737,0.9693,0.9661,0.9632,0.9588,0.9561,0.9547,0.9537,0.9517,0.9515,0.9518,0.9515,0.9501,0.9503,0.9505,0.9479,0.9479,0.9479,0,0,1.0,0.9966,0.9945,0.9915,0.9867,0.9835,0.983,0.9776,0.9755,0.9722,0.9689,0.9664,0.961,0.958,0.9558,0.9562,0.9538,0.9553,0.957,0.9558,0.9559,0.9561,0.9562,0.9564,0.9552,0.9553,0.9553,0,1.0024,0.998,0.9938,0.9911,0.9888,0.9847,0.9826,0.9799,0.9743,0.9729,0.9719,0.9651,0.9619,0.9584,0.9586,0.9569,0.9563,0.9558,0.9562,0.9563,0.9564,0.9565,0.9566,0.9555,0.9555,0.9554,0.9554,0,1.0012,0.9983,0.9972,0.9919,0.9895,0.9872,0.9827,0.9808,0.9783,0.9753,0.9721,0.968,0.964,0.963,0.9605,0.9593,0.9588,0.9571,0.9554,0.9569,0.9569,0.9569,0.9558,0.9557,0.9556,0.9556,0,0,1.005,0.9976,0.9973,0.9949,0.9895,0.9872,0.9848,0.9808,0.9792,0.9757,0.9736,0.9692,0.9677,0.9652,0.9624,0.9613,0.962,0.9597,0.9596,0.9603,0.9604,0.9616,0.9618,0.9604,0.9604,0.9604,0.9608,0,1.0054,1.0008,0.997,0.9938,0.9911,0.9873,0.9852,0.9817,0.9789,0.9762,0.9731,0.9701,0.9683,0.9667,0.9655,0.9621,0.9619,0.9621,0.9584,0.9583,0.9595,0.9617,0.963,0.9636,0.9607,0.9607,0.9607,0,1.0052,1.0018,0.9983,0.9933,0.992,0.9902,0.9863,0.9838,0.9799,0.9779,0.9753,0.9724,0.9698,0.9685,0.9649,0.9651,0.9635,0.9616,0.9616,0.961,0.9596,0.9612,0.9636,0.9637,0.9607,0.9607,0.9607,0,1.0083,1.0029,1.0001,0.9982,0.9923,0.9911,0.9886,0.9847,0.9826,0.9793,0.9779,0.9743,0.9724,0.9698,0.9661,0.9655,0.9629,0.9613,0.9613,0.9614,0.9608,0.9608,0.9629,0.9599,0.9599,0.9599,0.9598,0,1.0091,1.0071,1.0014,0.9997,0.9974,0.9933,0.9912,0.9884,0.9849,0.9827,0.9793,0.9773,0.9726,0.9701,0.9672,0.9647,0.9639,0.9623,0.9615,0.9625,0.9627,0.9612,0.9611,0.9599,0.9599,0.9599,0.9599,0,1.0121,1.0082,1.0049,0.9997,0.9984,0.9969,0.9925,0.9907,0.9878,0.985,0.9842,0.9795,0.9764,0.9726,0.9682,0.9663,0.9641,0.963,0.9654,0.9649,0.9651,0.9651,0.9663,0.9662,0.9633,0.9633,0.9634,0,1.0128,1.0112,1.0058,1.0041,1.0017,0.9989,0.9968,0.9927,0.9906,0.9862,0.985,0.9816,0.9787,0.9739,0.9702,0.9669,0.9657,0.9663,0.9652,0.9663,0.9657,0.9658,0.9656,0.9666,0.9666,0.9667,0.9667,0,1.0145,1.0127,1.0097,1.0061,1.0036,1.0006,0.9974,0.9962,0.9916,0.9894,0.9862,0.9839,0.9795,0.9763,0.9725,0.9701,0.9676,0.9672,0.967,0.9679,0.9693,0.9686,0.9661,0.9671,0.9671,0.967,0.967,0.967,1.0163,1.0147,1.0107,1.0076,1.0048,1.002,1.0001,0.997,0.9942,0.9902,0.9881,0.9849,0.9813,0.976,0.9737,0.9712,0.9703,0.9701,0.97,0.9699,0.9703,0.9699,0.9705,0.9705,0.9705,0.9705,0.9705,0,1.0178,1.0151,1.0122,1.0079,1.0055,1.0034,0.9999,0.998,0.9953,0.992,0.9892,0.9856,0.9825,0.9786,0.9753,0.9741,0.9729,0.9733,0.9733,0.9728,0.9713,0.9717,0.9743,0.9743,0.9743,0.9743,0.9743,0.9743,1.0182,1.0155,1.0133,1.0092,1.0065,1.0033,1.0015,0.9989,0.9963,0.9924,0.9898,0.9873,0.9839,0.9803,0.9774,0.9763,0.9752,0.976,0.9746,0.9732,0.9729,0.9726,0.973,0.9758,0.9758,0.9764,0.9764,0.9764]}]]